This is the latest recevied weather packets stored in our database for station/object iw0uwf-4. If no packets are shown the sender has not sent any weather packets the latest 1 day(s).
| Time | Temp. | Humidity | Pressure | Rain* | Wind** | Luminosity | Snow |
|---|---|---|---|---|---|---|---|
| 1778035984 | 14.44° C | 86% | 1003.8 hPa | 0 mm | 2.68 m/s, 246° | 0 W/m² | - |
| 1778035924 | 14.44° C | 86% | 1003.7 hPa | 0 mm | 2.68 m/s, 250° | 0 W/m² | - |
| 1778035864 | 14.44° C | 86% | 1003.6 hPa | 0 mm | 2.68 m/s, 260° | 0 W/m² | - |
| 1778035803 | 14.44° C | 86% | 1003.7 hPa | 0 mm | 2.24 m/s, 264° | 0 W/m² | - |
| 1778035743 | 14.44° C | 86% | 1003.9 hPa | 0 mm | 2.24 m/s, 267° | 0 W/m² | - |
| 1778035683 | 14.44° C | 85% | 1003.7 hPa | 0 mm | 2.24 m/s, 260° | 0 W/m² | - |
| 1778035624 | 14.44° C | 85% | 1003.8 hPa | 0 mm | 2.24 m/s, 263° | 0 W/m² | - |
| 1778035564 | 14.44° C | 85% | 1003.7 hPa | 0 mm | 2.24 m/s, 271° | 0 W/m² | - |
| 1778035503 | 14.44° C | 85% | 1003.7 hPa | 0 mm | 2.24 m/s, 273° | 0 W/m² | - |
| 1778035443 | 14.44° C | 85% | 1003.8 hPa | 0 mm | 2.24 m/s, 273° | 0 W/m² | - |
| 1778035384 | 14.44° C | 85% | 1003.8 hPa | 0 mm | 2.24 m/s, 270° | 0 W/m² | - |
| 1778035323 | 14.44° C | 85% | 1003.8 hPa | 0 mm | 2.24 m/s, 272° | 0 W/m² | - |
| 1778035263 | 14.44° C | 85% | 1003.7 hPa | 0 mm | 2.24 m/s, 261° | 0 W/m² | - |
| 1778035203 | 14.44° C | 85% | 1003.8 hPa | 0 mm | 2.24 m/s, 257° | 0 W/m² | - |
| 1778035143 | 14.44° C | 84% | 1003.6 hPa | 0 mm | 2.24 m/s, 242° | 0 W/m² | - |
| 1778035083 | 14.44° C | 84% | 1003.8 hPa | 0 mm | 2.24 m/s, 232° | 0 W/m² | - |
| 1778035023 | 14.44° C | 84% | 1003.7 hPa | 0 mm | 2.24 m/s, 218° | 0 W/m² | - |
| 1778034964 | 14.44° C | 84% | 1003.7 hPa | 0 mm | 2.24 m/s, 215° | 0 W/m² | - |
| 1778034904 | 14.44° C | 84% | 1003.7 hPa | 0 mm | 2.24 m/s, 226° | 0 W/m² | - |
| 1778034844 | 14.44° C | 84% | 1003.7 hPa | 0 mm | 2.68 m/s, 233° | 0 W/m² | - |
| 1778034784 | 14.44° C | 84% | 1003.7 hPa | 0 mm | 2.68 m/s, 227° | 0 W/m² | - |
| 1778034724 | 14.44° C | 84% | 1003.8 hPa | 0 mm | 2.68 m/s, 230° | 0 W/m² | - |
| 1778034664 | 14.44° C | 84% | 1003.8 hPa | 0 mm | 2.68 m/s, 240° | 0 W/m² | - |
| 1778034604 | 14.44° C | 84% | 1003.7 hPa | 0 mm | 2.68 m/s, 237° | 0 W/m² | - |
| 1778034544 | 14.44° C | 83% | 1003.7 hPa | 0 mm | 2.68 m/s, 249° | 0 W/m² | - |
* Rain latest hour (hover to see other rain measurements)
** Current wind speed in m/s (hover to see current wind gust speed)